Woodward, OK

4:57 AM CST on January 22, 2017 (GMT -0600)
West Woodward

Weather History for KWWR - April, 2014

Change the Weather History Date:

Sunday, April 27, 2014

  Actual Average (KGAG) Record (KGAG)
Temperature  
Mean Temperature 67 °F -  
Max Temperature 77 °F 74 °F 98 °F (1956)
Min Temperature 57 °F 47 °F 31 °F (1961)
Cooling Degree Days 2    
Growing Degree Days 17 (Base 50)    
Moisture  
Dew Point 36 °F    
Average Humidity 35    
Maximum Humidity 73    
Minimum Humidity 16    
Precipitation  
Precipitation 0.00 in - - ()
Sea Level Pressure  
Sea Level Pressure 29.41 in    
Wind  
Wind Speed 23 mph (WSW)    
Max Wind Speed 40 mph    
Max Gust Speed 54 mph    
Visibility 8 miles    
Events      
Averages and records for this station are not official NWS values.
T = Trace of Precipitation, MM = Missing Value Source: NWS Daily Summary

Daily Weather History Graph

Daily Weather History Graph

Search for Another Location

Airport or City:

Trip Planner

Search our weather history database for the weather conditions in past years. The results will help you decide how hot, cold, wet, or windy it might be!

Date:

Astronomy

Apr. 27, 2014 Rise Set
Actual Time 6:49 AM CDT 8:22 PM CDT
Civil Twilight 6:21 AM CDT 8:50 PM CDT
Nautical Twilight 5:49 AM CDT 9:23 PM CDT
Astronomical Twilight 5:14 AM CDT 9:57 PM CDT
Moon 5:47 AM CDT (4/27) 7:00 PM CDT (4/27)
Length of Visible Light 14h 28m
Length of Day
13h 33m
Waning Crescent, 3% of the Moon is Illuminated
Apr 27
Waning Crescent
Apr 29
New
May 6
First Quarter
May 14
Full
May 21
Last Quarter

Hourly Weather History & Observations

Time (CDT) Temp. Dew Point Humidity Pressure Visibility Wind Dir Wind Speed Gust Speed Precip Events Conditions
12:15 AM 71.6 °F 60.8 °F 69% 29.46 in 10.0 mi South 27.6 mph 38.0 mph N/A   Clear
12:35 AM 71.6 °F 60.8 °F 69% 29.46 in 10.0 mi South 25.3 mph 35.7 mph N/A   Clear
1:15 AM 71.6 °F 60.8 °F 69% 29.44 in 10.0 mi South 29.9 mph 38.0 mph N/A   Clear
1:35 AM 71.6 °F 60.8 °F 69% 29.43 in 10.0 mi South 27.6 mph 39.1 mph N/A   Clear
1:55 AM 69.8 °F 60.8 °F 73% 29.43 in 10.0 mi South 25.3 mph 36.8 mph N/A   Clear
2:15 AM 69.8 °F 60.8 °F 73% 29.43 in 10.0 mi South 28.8 mph 40.3 mph N/A   Clear
2:35 AM 69.8 °F 60.8 °F 73% 29.42 in 10.0 mi South 28.8 mph 39.1 mph N/A   Clear
2:55 AM 69.8 °F 60.8 °F 73% 29.42 in 10.0 mi South 25.3 mph 34.5 mph N/A   Clear
3:15 AM 69.8 °F 60.8 °F 73% 29.43 in 10.0 mi South 21.9 mph 34.5 mph N/A   Scattered Clouds
3:35 AM 69.8 °F 60.8 °F 73% 29.44 in 10.0 mi South 23.0 mph 33.4 mph N/A   Mostly Cloudy
3:55 AM 69.8 °F 60.8 °F 73% 29.44 in 10.0 mi SSW 18.4 mph 29.9 mph N/A   Overcast
4:15 AM 69.8 °F 44.6 °F 40% 29.45 in 10.0 mi WSW 17.3 mph 33.4 mph N/A   Overcast
4:35 AM 68.0 °F 35.6 °F 30% 29.46 in 10.0 mi WSW 11.5 mph - N/A   Overcast
4:55 AM 68.0 °F 35.6 °F 30% 29.45 in 10.0 mi SSW 9.2 mph - N/A   Overcast
5:15 AM 68.0 °F 35.6 °F 30% 29.44 in 10.0 mi SSW 9.2 mph - N/A   Overcast
5:35 AM 68.0 °F 35.6 °F 30% 29.45 in 10.0 mi SSW 11.5 mph - N/A   Scattered Clouds
5:55 AM 66.2 °F 33.8 °F 30% 29.43 in 10.0 mi SSW 10.4 mph - N/A   Clear
6:15 AM 64.4 °F 33.8 °F 32% 29.42 in 10.0 mi SSW 12.7 mph - N/A   Clear
6:35 AM 64.4 °F 30.2 °F 28% 29.43 in 10.0 mi SW 19.6 mph 25.3 mph N/A   Clear
6:55 AM 62.6 °F 26.6 °F 26% 29.43 in 10.0 mi SW 16.1 mph 27.6 mph N/A   Clear
7:15 AM 60.8 °F 21.2 °F 22% 29.41 in 10.0 mi SSW 16.1 mph 20.7 mph N/A   Clear
7:35 AM 60.8 °F 21.2 °F 22% 29.40 in 10.0 mi SW 19.6 mph 27.6 mph N/A   Clear
7:55 AM 60.8 °F 19.4 °F 20% 29.39 in 10.0 mi SW 20.7 mph 32.2 mph N/A   Clear
8:15 AM 60.8 °F 19.4 °F 20% 29.38 in 10.0 mi SW 24.2 mph 34.5 mph N/A   Clear
8:35 AM 60.8 °F 21.2 °F 22% 29.40 in 10.0 mi SW 23.0 mph 33.4 mph N/A   Clear
8:55 AM 60.8 °F 23.0 °F 23% 29.40 in 10.0 mi SW 24.2 mph 31.1 mph N/A   Clear
9:15 AM 62.6 °F 23.0 °F 22% 29.39 in 10.0 mi SW 18.4 mph 34.5 mph N/A   Clear
9:35 AM 62.6 °F 24.8 °F 24% 29.39 in 10.0 mi SW 28.8 mph 34.5 mph N/A   Clear
9:55 AM 64.4 °F 26.6 °F 24% 29.39 in 10.0 mi SW 23.0 mph 34.5 mph N/A   Clear
10:15 AM 64.4 °F 26.6 °F 24% 29.38 in 10.0 mi SW 23.0 mph 34.5 mph N/A   Clear
10:35 AM 66.2 °F 26.6 °F 23% 29.37 in 10.0 mi SSW 21.9 mph 35.7 mph N/A   Clear
10:55 AM 68.0 °F 26.6 °F 21% 29.37 in 10.0 mi SSW 25.3 mph 34.5 mph N/A   Clear
11:15 AM 68.0 °F 26.6 °F 21% 29.37 in 10.0 mi SSW 27.6 mph 39.1 mph N/A   Clear
11:35 AM 69.8 °F 28.4 °F 21% 29.36 in 10.0 mi SSW 26.5 mph 38.0 mph N/A   Clear
11:55 AM 71.6 °F 28.4 °F 20% 29.34 in 10.0 mi South 32.2 mph 42.6 mph N/A   Clear
12:35 PM 73.4 °F 26.6 °F 18% 29.34 in 10.0 mi SSW 28.8 mph 42.6 mph N/A   Clear
12:55 PM 75.2 °F 26.6 °F 17% 29.33 in 10.0 mi SW 29.9 mph 40.3 mph N/A   Clear
1:15 PM 75.2 °F 26.6 °F 17% 29.32 in 10.0 mi SSW 31.1 mph 44.9 mph N/A   Scattered Clouds
1:35 PM 77.0 °F 28.4 °F 17% 29.32 in 10.0 mi SW 33.4 mph 43.7 mph N/A   Mostly Cloudy
1:55 PM 77.0 °F 26.6 °F 16% 29.32 in 10.0 mi SW 26.5 mph 40.3 mph N/A   Mostly Cloudy
2:15 PM 73.4 °F 33.8 °F 23% 29.33 in 4.0 mi WSW 39.1 mph 51.8 mph N/A   Haze
2:35 PM 73.4 °F 33.8 °F 23% 29.33 in 2.5 mi West 40.3 mph 54.1 mph N/A   Haze
2:55 PM 73.4 °F 33.8 °F 23% 29.34 in 2.5 mi WSW 31.1 mph 51.8 mph N/A   Haze
3:15 PM 73.4 °F 33.8 °F 23% 29.34 in 4.0 mi West 27.6 mph 44.9 mph N/A   Haze
3:35 PM 75.2 °F 33.8 °F 22% 29.34 in 4.0 mi West 26.5 mph 41.4 mph N/A   Haze
3:55 PM 77.0 °F 33.8 °F 21% 29.33 in 5.0 mi West 25.3 mph 39.1 mph N/A   Haze
4:15 PM 73.4 °F 32.0 °F 22% 29.33 in 7.0 mi West 29.9 mph 39.1 mph N/A   Overcast
4:35 PM 75.2 °F 32.0 °F 21% 29.34 in 10.0 mi West 27.6 mph 39.1 mph N/A   Overcast
5:15 PM 73.4 °F 33.8 °F 23% 29.34 in 10.0 mi West 27.6 mph 34.5 mph N/A   Mostly Cloudy
5:35 PM 73.4 °F 33.8 °F 23% 29.34 in 10.0 mi West 25.3 mph 33.4 mph N/A   Mostly Cloudy
5:55 PM 73.4 °F 33.8 °F 23% 29.35 in 10.0 mi WNW 20.7 mph 31.1 mph N/A   Mostly Cloudy
6:15 PM 71.6 °F 32.0 °F 23% 29.36 in 10.0 mi WNW 24.2 mph 32.2 mph N/A   Scattered Clouds
6:35 PM 69.8 °F 33.8 °F 27% 29.36 in 10.0 mi WNW 20.7 mph 29.9 mph N/A   Scattered Clouds
6:55 PM 68.0 °F 33.8 °F 28% 29.38 in 5.0 mi WNW 18.4 mph 31.1 mph N/A   Haze
7:15 PM 66.2 °F 33.8 °F 30% 29.39 in 5.0 mi WNW 20.7 mph 28.8 mph N/A   Haze
7:35 PM 64.4 °F 33.8 °F 32% 29.40 in 5.0 mi WNW 18.4 mph 27.6 mph N/A   Haze
7:55 PM 64.4 °F 33.8 °F 32% 29.41 in 5.0 mi NW 23.0 mph 29.9 mph N/A   Haze
8:15 PM 62.6 °F 35.6 °F 37% 29.43 in 4.0 mi WNW 18.4 mph 28.8 mph N/A   Haze
8:35 PM 60.8 °F 35.6 °F 39% 29.45 in 4.0 mi WNW 18.4 mph 24.2 mph N/A   Haze
8:55 PM 60.8 °F 35.6 °F 39% 29.45 in 5.0 mi WNW 15.0 mph 23.0 mph N/A   Haze
9:15 PM 59.0 °F 35.6 °F 42% 29.47 in 5.0 mi WNW 11.5 mph - N/A   Haze
9:35 PM 59.0 °F 35.6 °F 42% 29.48 in 7.0 mi West 15.0 mph 24.2 mph N/A   Overcast
9:55 PM 59.0 °F 35.6 °F 42% 29.49 in 7.0 mi West 16.1 mph 24.2 mph N/A   Overcast
10:15 PM 59.0 °F 35.6 °F 42% 29.50 in 5.0 mi WNW 18.4 mph - N/A   Haze
10:35 PM 59.0 °F 35.6 °F 42% 29.52 in 5.0 mi West 17.3 mph 26.5 mph N/A   Haze
10:55 PM 59.0 °F 35.6 °F 42% 29.53 in 7.0 mi West 16.1 mph 25.3 mph N/A   Overcast
11:15 PM 57.2 °F 35.6 °F 44% 29.53 in 10.0 mi West 16.1 mph 21.9 mph N/A   Overcast
11:35 PM 57.2 °F 35.6 °F 44% 29.53 in 10.0 mi West 16.1 mph 24.2 mph N/A   Overcast
11:55 PM 57.2 °F 33.8 °F 41% 29.53 in 10.0 mi WNW 15.0 mph 23.0 mph N/A   Mostly Cloudy